HYS271 LROD-LROP

Flight info

Callsign HYS271
Flight time 0h 47m
Altitude 27000
Route RULES DCT OBARA DCT ELROM DCT UPOLI DCT TOSVI
Aircraft A320/M-SDE3FGHIRWY/LB1

Departure

Time 2026-05-05 18:46
Airport Oradea International Airport (LROD)

Arrival

Time 2026-05-05 19:33
Airport Bucharest Henri Coandă International Airport (LROP)
Time Latitude Longitude Altitude Speed Heading
2026-05-05 18:29 47.02788 21.90004 477 ft 0 kts 49°
2026-05-05 18:42 47.02788 21.90040 477 ft 5 kts 102°
2026-05-05 18:43 47.02815 21.90086 477 ft 10 kts 18°
2026-05-05 18:43 47.02912 21.90115 477 ft 17 kts 11°
2026-05-05 18:43 47.03025 21.90146 475 ft 16 kts 11°
2026-05-05 18:43 47.03147 21.90180 471 ft 19 kts 11°
2026-05-05 18:44 47.03288 21.90223 477 ft 22 kts 11°
2026-05-05 18:44 47.03403 21.90256 477 ft 11 kts 11°
2026-05-05 18:44 47.03470 21.90322 473 ft 13 kts 75°
2026-05-05 18:44 47.03450 21.90465 476 ft 16 kts 115°
2026-05-05 18:45 47.03346 21.90475 477 ft 20 kts 192°
2026-05-05 18:45 47.02987 21.90370 473 ft 89 kts 191°
2026-05-05 18:45 47.02188 21.90137 509 ft 142 kts 191°
2026-05-05 18:45 47.01151 21.89861 928 ft 160 kts 190°
2026-05-05 18:46 46.99988 21.89574 1470 ft 177 kts 190°
2026-05-05 18:46 46.98736 21.89289 2134 ft 186 kts 189°
2026-05-05 18:46 46.97429 21.89025 2798 ft 193 kts 189°
2026-05-05 18:46 46.96031 21.88802 3240 ft 212 kts 179°
2026-05-05 18:47 46.94559 21.89561 3651 ft 245 kts 144°
2026-05-05 18:47 46.93574 21.91721 4401 ft 268 kts 113°
2026-05-05 18:47 46.93022 21.94359 5426 ft 274 kts 108°
2026-05-05 18:47 46.92574 21.97089 6414 ft 279 kts 106°
2026-05-05 18:48 46.92156 21.99842 7368 ft 283 kts 106°
2026-05-05 18:48 46.91726 22.02663 8339 ft 286 kts 106°
2026-05-05 18:48 46.91278 22.05517 9323 ft 290 kts 106°
2026-05-05 18:48 46.90809 22.08401 10188 ft 297 kts 106°
2026-05-05 18:49 46.90296 22.11457 10562 ft 320 kts 107°
2026-05-05 18:49 46.89476 22.14505 11195 ft 325 kts 124°
2026-05-05 18:49 46.88174 22.17223 12014 ft 328 kts 127°
2026-05-05 18:49 46.86836 22.19952 12866 ft 332 kts 127°
2026-05-05 18:50 46.85479 22.22705 13690 ft 336 kts 127°
2026-05-05 18:50 46.84105 22.25491 14413 ft 340 kts 127°
2026-05-05 18:50 46.82717 22.28310 15129 ft 344 kts 127°
2026-05-05 18:50 46.81331 22.31120 15823 ft 347 kts 127°
2026-05-05 18:51 46.79910 22.33999 16534 ft 351 kts 127°
2026-05-05 18:51 46.78476 22.36902 17246 ft 355 kts 127°
2026-05-05 18:51 46.77027 22.39835 17977 ft 358 kts 126°
2026-05-05 18:51 46.75560 22.42797 18645 ft 362 kts 127°
2026-05-05 18:52 46.74075 22.45788 19274 ft 366 kts 127°
2026-05-05 18:52 46.72573 22.48816 19900 ft 371 kts 127°
2026-05-05 18:52 46.71053 22.51876 20500 ft 376 kts 127°
2026-05-05 18:52 46.69508 22.54980 21054 ft 380 kts 126°
2026-05-05 18:53 46.67969 22.58075 21597 ft 385 kts 126°
2026-05-05 18:53 46.66389 22.61251 22134 ft 389 kts 126°
2026-05-05 18:53 46.64791 22.64457 22672 ft 394 kts 126°
2026-05-05 18:53 46.63172 22.67699 23220 ft 398 kts 126°
2026-05-05 18:54 46.61533 22.70974 23732 ft 402 kts 126°
2026-05-05 18:54 46.59879 22.74276 24211 ft 406 kts 126°
2026-05-05 18:54 46.58211 22.77598 24694 ft 409 kts 126°
2026-05-05 18:54 46.56528 22.80942 25174 ft 412 kts 126°
2026-05-05 18:55 46.54830 22.84313 25650 ft 414 kts 126°
2026-05-05 18:55 46.53122 22.87707 26120 ft 417 kts 126°
2026-05-05 18:55 46.51404 22.91114 26570 ft 421 kts 126°
2026-05-05 18:55 46.49665 22.94556 26922 ft 424 kts 126°
2026-05-05 18:56 46.47918 22.98009 27011 ft 426 kts 126°
2026-05-05 18:56 46.46181 23.01448 27020 ft 434 kts 126°
2026-05-05 18:56 46.44368 23.05041 27016 ft 449 kts 126°
2026-05-05 18:56 46.42496 23.08744 27017 ft 461 kts 126°
2026-05-05 18:57 46.40570 23.12538 27010 ft 473 kts 126°
2026-05-05 18:57 46.38598 23.16412 27014 ft 483 kts 126°
2026-05-05 18:57 46.36593 23.20345 27011 ft 487 kts 126°
2026-05-05 18:57 46.34578 23.24288 27011 ft 488 kts 126°
2026-05-05 18:58 46.32554 23.28240 27004 ft 489 kts 126°
2026-05-05 18:58 46.30527 23.32196 27004 ft 491 kts 126°
2026-05-05 18:58 46.28495 23.36166 27004 ft 491 kts 126°
2026-05-05 18:58 46.26466 23.40136 26999 ft 491 kts 126°
2026-05-05 18:59 46.24463 23.44051 26998 ft 491 kts 126°
2026-05-05 18:59 46.22428 23.48013 26993 ft 491 kts 126°
2026-05-05 18:59 46.20386 23.51969 26990 ft 491 kts 126°
2026-05-05 18:59 46.18347 23.55914 26983 ft 491 kts 126°
2026-05-05 19:00 46.16301 23.59868 26976 ft 491 kts 126°
2026-05-05 19:00 46.14264 23.63806 26977 ft 491 kts 126°
2026-05-05 19:00 46.12224 23.67747 26974 ft 491 kts 126°
2026-05-05 19:00 46.10180 23.71692 26972 ft 491 kts 126°
2026-05-05 19:01 46.08135 23.75631 26969 ft 491 kts 126°
2026-05-05 19:01 46.06094 23.79561 26971 ft 491 kts 126°
2026-05-05 19:01 46.04048 23.83494 26973 ft 491 kts 126°
2026-05-05 19:01 46.02028 23.87376 26977 ft 491 kts 126°
2026-05-05 19:02 45.99986 23.91295 26979 ft 491 kts 126°
2026-05-05 19:02 45.97933 23.95216 26981 ft 491 kts 126°
2026-05-05 19:02 45.95878 23.99126 26981 ft 491 kts 126°
2026-05-05 19:02 45.93816 24.03044 26985 ft 491 kts 126°
2026-05-05 19:03 45.91761 24.06950 26985 ft 491 kts 126°
2026-05-05 19:03 45.89687 24.10842 26981 ft 491 kts 128°
2026-05-05 19:03 45.87232 24.14257 26982 ft 493 kts 141°
2026-05-05 19:03 45.84383 24.17010 26985 ft 494 kts 146°
2026-05-05 19:04 45.81512 24.19673 26984 ft 484 kts 146°
2026-05-05 19:04 45.78751 24.22228 27002 ft 461 kts 146°
2026-05-05 19:04 45.76149 24.24633 27002 ft 441 kts 146°
2026-05-05 19:04 45.73619 24.26968 27004 ft 423 kts 146°
2026-05-05 19:05 45.71198 24.29206 27013 ft 407 kts 146°
2026-05-05 19:05 45.68844 24.31387 27009 ft 406 kts 146°
2026-05-05 19:05 45.66416 24.33641 27012 ft 424 kts 146°
2026-05-05 19:05 45.63896 24.35983 27013 ft 440 kts 146°
2026-05-05 19:06 45.61288 24.38404 27015 ft 454 kts 146°
2026-05-05 19:06 45.58590 24.40896 27018 ft 468 kts 146°
2026-05-05 19:06 45.55821 24.43443 27019 ft 480 kts 146°
2026-05-05 19:06 45.53255 24.45789 27024 ft 490 kts 146°
2026-05-05 19:07 45.50532 24.48275 27026 ft 496 kts 146°
2026-05-05 19:07 45.47621 24.50934 27030 ft 498 kts 146°
2026-05-05 19:07 45.44743 24.53569 27028 ft 498 kts 146°
2026-05-05 19:07 45.41832 24.56257 27030 ft 499 kts 146°
2026-05-05 19:08 45.38917 24.58930 27031 ft 499 kts 146°
2026-05-05 19:08 45.35995 24.61599 27032 ft 499 kts 146°
2026-05-05 19:08 45.33065 24.64264 27032 ft 499 kts 146°
2026-05-05 19:08 45.30136 24.66917 27033 ft 499 kts 146°
2026-05-05 19:09 45.27391 24.69403 27032 ft 499 kts 146°
2026-05-05 19:09 45.24461 24.72058 27029 ft 499 kts 146°
2026-05-05 19:09 45.21534 24.74710 27023 ft 499 kts 146°
2026-05-05 19:09 45.18647 24.77328 27020 ft 499 kts 146°
2026-05-05 19:10 45.15724 24.79972 27012 ft 499 kts 146°
2026-05-05 19:10 45.12785 24.82601 27016 ft 499 kts 146°
2026-05-05 19:10 45.09866 24.85214 26999 ft 488 kts 146°
2026-05-05 19:10 45.07064 24.87732 26884 ft 467 kts 146°
2026-05-05 19:11 45.04374 24.90158 26754 ft 450 kts 146°
2026-05-05 19:11 45.01786 24.92494 26623 ft 434 kts 146°
2026-05-05 19:11 44.99298 24.94769 26497 ft 419 kts 142°
2026-05-05 19:11 44.97206 24.97489 26373 ft 402 kts 126°
2026-05-05 19:12 44.95646 25.00525 26250 ft 389 kts 122°
2026-05-05 19:12 44.94139 25.03558 26001 ft 382 kts 122°
2026-05-05 19:12 44.92626 25.06617 25597 ft 380 kts 122°
2026-05-05 19:12 44.91119 25.09679 25091 ft 381 kts 122°
2026-05-05 19:13 44.89597 25.12773 24417 ft 386 kts 122°
2026-05-05 19:13 44.88053 25.15904 23730 ft 392 kts 123°
2026-05-05 19:13 44.86542 25.18958 22960 ft 397 kts 123°
2026-05-05 19:13 44.84957 25.22158 22152 ft 401 kts 123°
2026-05-05 19:14 44.83361 25.25372 21356 ft 395 kts 123°
2026-05-05 19:14 44.81804 25.28493 20591 ft 384 kts 123°
2026-05-05 19:14 44.80307 25.31485 19856 ft 374 kts 123°
2026-05-05 19:14 44.78828 25.34437 19133 ft 364 kts 123°
2026-05-05 19:15 44.77384 25.37319 18422 ft 356 kts 123°
2026-05-05 19:15 44.75972 25.40147 17631 ft 349 kts 123°
2026-05-05 19:15 44.74593 25.42910 16840 ft 342 kts 122°
2026-05-05 19:15 44.73233 25.45632 16093 ft 336 kts 122°
2026-05-05 19:16 44.71907 25.48281 15446 ft 328 kts 122°
2026-05-05 19:16 44.70594 25.50899 14615 ft 327 kts 122°
2026-05-05 19:16 44.69283 25.53509 13765 ft 327 kts 122°
2026-05-05 19:16 44.67990 25.56083 12846 ft 326 kts 122°
2026-05-05 19:17 44.66686 25.58681 11943 ft 325 kts 122°
2026-05-05 19:17 44.65382 25.61277 11072 ft 325 kts 122°
2026-05-05 19:17 44.64078 25.63866 10210 ft 325 kts 122°
2026-05-05 19:17 44.62773 25.66453 9318 ft 324 kts 123°
2026-05-05 19:18 44.61469 25.69033 8411 ft 324 kts 123°
2026-05-05 19:18 44.60167 25.71606 7539 ft 322 kts 123°
2026-05-05 19:18 44.58875 25.74163 6680 ft 321 kts 124°
2026-05-05 19:18 44.57606 25.76676 5824 ft 319 kts 124°
2026-05-05 19:19 44.56327 25.79208 4950 ft 316 kts 124°
2026-05-05 19:19 44.55289 25.81891 4072 ft 312 kts 110°
2026-05-05 19:19 44.54833 25.84826 3308 ft 307 kts 94°
2026-05-05 19:19 44.54925 25.87734 2844 ft 291 kts 84°
2026-05-05 19:20 44.55142 25.90485 2503 ft 275 kts 84°
2026-05-05 19:20 44.55343 25.93072 2182 ft 259 kts 85°
2026-05-05 19:20 44.55531 25.95509 1883 ft 244 kts 85°
2026-05-05 19:20 44.55709 25.97811 1603 ft 231 kts 85°
2026-05-05 19:21 44.55872 25.99925 1343 ft 220 kts 85°
2026-05-05 19:21 44.56039 26.02125 1368 ft 262 kts 85°
2026-05-05 19:21 44.56242 26.04904 1845 ft 308 kts 85°
2026-05-05 19:21 44.56462 26.07902 2153 ft 299 kts 85°
2026-05-05 19:22 44.56653 26.10674 2397 ft 272 kts 84°
2026-05-05 19:22 44.57154 26.13079 2635 ft 250 kts 58°
2026-05-05 19:22 44.58385 26.14741 2879 ft 248 kts 27°
2026-05-05 19:22 44.60031 26.15309 2984 ft 245 kts 356°
2026-05-05 19:23 44.61631 26.14626 3006 ft 241 kts 324°
2026-05-05 19:23 44.62711 26.12929 3008 ft 238 kts 295°
2026-05-05 19:23 44.63313 26.10757 3010 ft 239 kts 287°
2026-05-05 19:23 44.63829 26.08538 3010 ft 239 kts 287°
2026-05-05 19:24 44.64334 26.06309 3010 ft 240 kts 287°
2026-05-05 19:24 44.64716 26.04047 3001 ft 238 kts 272°
2026-05-05 19:24 44.64707 26.01721 3010 ft 238 kts 267°
2026-05-05 19:24 44.64632 25.99401 3010 ft 238 kts 266°
2026-05-05 19:25 44.64552 25.97078 3007 ft 238 kts 266°
2026-05-05 19:25 44.64472 25.94791 3002 ft 228 kts 266°
2026-05-05 19:25 44.64400 25.92667 3001 ft 213 kts 266°
2026-05-05 19:25 44.64333 25.90628 3006 ft 207 kts 266°
2026-05-05 19:26 44.64269 25.88665 3030 ft 199 kts 266°
2026-05-05 19:26 44.64207 25.86738 3003 ft 197 kts 266°
2026-05-05 19:26 44.64148 25.84824 3000 ft 196 kts 266°
2026-05-05 19:26 44.64087 25.82909 2998 ft 196 kts 266°
2026-05-05 19:27 44.64002 25.81003 3000 ft 196 kts 259°
2026-05-05 19:27 44.63381 25.79376 3000 ft 196 kts 223°
2026-05-05 19:27 44.62163 25.78602 2799 ft 194 kts 188°
2026-05-05 19:27 44.60821 25.78615 2511 ft 192 kts 178°
2026-05-05 19:28 44.59481 25.78762 2501 ft 195 kts 177°
2026-05-05 19:28 44.58157 25.79146 2498 ft 198 kts 154°
2026-05-05 19:28 44.57191 25.80511 2502 ft 202 kts 122°
2026-05-05 19:28 44.56543 25.82268 2502 ft 203 kts 117°
2026-05-05 19:29 44.55946 25.84058 2502 ft 203 kts 116°
2026-05-05 19:29 44.55363 25.85827 2503 ft 202 kts 116°
2026-05-05 19:29 44.54788 25.87625 2502 ft 203 kts 111°
2026-05-05 19:29 44.54664 25.89585 2507 ft 205 kts 84°
2026-05-05 19:30 44.54890 25.91561 2460 ft 205 kts 79°
2026-05-05 19:30 44.55175 25.93513 2345 ft 200 kts 80°
2026-05-05 19:30 44.55420 25.95354 2227 ft 184 kts 81°
2026-05-05 19:30 44.55647 25.97040 2103 ft 170 kts 83°
2026-05-05 19:31 44.55802 25.98623 1748 ft 161 kts 87°
2026-05-05 19:31 44.55922 26.00160 1459 ft 157 kts 85°
2026-05-05 19:31 44.56023 26.01676 1211 ft 155 kts 86°
2026-05-05 19:31 44.56117 26.03167 877 ft 153 kts 85°
2026-05-05 19:32 44.56245 26.04624 742 ft 151 kts 87°
2026-05-05 19:32 44.56355 26.06084 587 ft 150 kts 84°
2026-05-05 19:32 44.56459 26.07536 402 ft 149 kts 85°
2026-05-05 19:32 44.56558 26.08906 323 ft 127 kts 85°
2026-05-05 19:33 44.56618 26.09722 321 ft 41 kts 84°
2026-05-05 19:33 44.56641 26.10029 323 ft 31 kts 83°
2026-05-05 19:33 44.56663 26.10333 323 ft 26 kts 83°
2026-05-05 19:33 44.56679 26.10549 323 ft 23 kts 85°
2026-05-05 19:34 44.56706 26.10735 323 ft 15 kts 53°
2026-05-05 19:34 44.56809 26.10758 321 ft 10 kts 355°
2026-05-05 19:34 44.56890 26.10747 322 ft 13 kts 354°
2026-05-05 19:35 44.57048 26.10605 323 ft 13 kts 298°
2026-05-05 19:35 44.57064 26.10464 323 ft 17 kts 265°
2026-05-05 19:35 44.57052 26.10303 323 ft 11 kts 263°
2026-05-05 19:35 44.57042 26.10183 323 ft 10 kts 264°
2026-05-05 19:36 44.57034 26.10073 323 ft 13 kts 264°
2026-05-05 19:36 44.57022 26.09927 323 ft 17 kts 263°
2026-05-05 19:36 44.57008 26.09745 323 ft 21 kts 263°
2026-05-05 19:36 44.56989 26.09529 323 ft 24 kts 265°
2026-05-05 19:37 44.56975 26.09316 323 ft 23 kts 263°
2026-05-05 19:37 44.56957 26.09088 323 ft 16 kts 265°
2026-05-05 19:37 44.56945 26.08913 323 ft 20 kts 264°
2026-05-05 19:37 44.56929 26.08702 322 ft 21 kts 263°
2026-05-05 19:38 44.56908 26.08545 323 ft 18 kts 244°
2026-05-05 19:38 44.56930 26.08391 322 ft 15 kts 316°
2026-05-05 19:38 44.56947 26.08258 323 ft 12 kts 264°
2026-05-05 19:38 44.56940 26.08173 323 ft 0 kts 263°
2026-05-05 19:39 44.56945 26.08156 323 ft 5 kts 304°
2026-05-05 19:39 44.56983 26.08139 323 ft 7 kts 354°
2026-05-05 19:39 44.57017 26.08134 323 ft 3 kts 353°
2026-05-05 19:40 44.57021 26.08134 323 ft 0 kts 354°